Fort Payne, AL

9:54 AM CDT on August 29, 2016 (GMT -0500)
Fort Payne

Weather History for K4A9 - March, 2013

Change the Weather History Date:

Wednesday, March 20, 2013

  Actual Average (KRMG) Record (KRMG)
Temperature  
Mean Temperature 44 °F 53 °F  
Max Temperature 55 °F 66 °F 84 °F (2004)
Min Temperature 33 °F 41 °F 36 °F (1999)
Degree Days  
Heating Degree Days 21 12  
Month to date heating degree days 291  
Since 1 July heating degree days 2913  
Cooling Degree Days 0 0  
Month to date cooling degree days 0  
Year to date cooling degree days 0  
Moisture  
Dew Point 22 °F    
Average Humidity 48    
Maximum Humidity 87    
Minimum Humidity 18    
Precipitation  
Precipitation 0.00 in 0.16 in 2.43 in (2001)
Month to date precipitation 3.36  
Year to date precipitation 13.05  
Sea Level Pressure  
Sea Level Pressure 30.06 in    
Wind  
Wind Speed 3 mph (WNW)    
Max Wind Speed 17 mph    
Max Gust Speed 26 mph    
Visibility 10 miles    
Events      
T = Trace of Precipitation, MM = Missing Value Source: NWS Daily Summary

Daily Weather History Graph

Daily Weather History Graph

Search for Another Location

Airport or City:

Trip Planner

Search our weather history database for the weather conditions in past years. The results will help you decide how hot, cold, wet, or windy it might be!

Date:

Astronomy

Mar. 20, 2013 Rise Set
Actual Time 6:46 AM CDT 6:54 PM CDT
Civil Twilight 6:21 AM CDT 7:19 PM CDT
Nautical Twilight 5:51 AM CDT 7:49 PM CDT
Astronomical Twilight 5:22 AM CDT 8:18 PM CDT
Moon 12:42 PM CDT (3/20) 2:11 AM CDT (3/20)
Length of Visible Light 12h 58m
Length of Day
12h 08m
First Quarter, 59% of the Moon is Illuminated
Mar 20
First Quarter
Mar 27
Full
Apr 2
Last Quarter
Apr 10
New
Apr 18
First Quarter

Hourly Weather History & Observations

Time (CDT) Temp. Windchill Dew Point Humidity Pressure Visibility Wind Dir Wind Speed Gust Speed Precip Events Conditions
12:15 AM 35.6 °F - 28.4 °F 75% 30.12 in 10.0 mi Calm Calm - N/A   Clear
12:35 AM 35.6 °F - 26.6 °F 70% 30.12 in 10.0 mi Calm Calm - N/A   Clear
12:55 AM 35.6 °F - 28.4 °F 75% 30.13 in 10.0 mi Calm Calm - N/A   Mostly Cloudy
1:15 AM 35.6 °F - 30.2 °F 81% 30.13 in 10.0 mi Calm Calm - N/A   Overcast
1:35 AM 37.4 °F - 28.4 °F 70% 30.13 in 10.0 mi Calm Calm - N/A   Mostly Cloudy
1:55 AM 37.4 °F - 30.2 °F 75% 30.13 in 10.0 mi Calm Calm - N/A   Mostly Cloudy
2:15 AM 37.4 °F - 30.2 °F 75% 30.13 in 10.0 mi Calm Calm - N/A   Overcast
2:35 AM 37.4 °F - 32.0 °F 81% 30.13 in 10.0 mi Calm Calm - N/A   Overcast
2:55 AM 37.4 °F - 30.2 °F 75% 30.12 in 10.0 mi Calm Calm - N/A   Scattered Clouds
3:15 AM 37.4 °F - 30.2 °F 75% 30.11 in 10.0 mi Calm Calm - N/A   Clear
3:35 AM 35.6 °F - 32.0 °F 87% 30.10 in 10.0 mi Calm Calm - N/A   Clear
3:55 AM 33.8 °F - 28.4 °F 81% 30.10 in 10.0 mi Calm Calm - N/A   Scattered Clouds
4:15 AM 33.8 °F - 28.4 °F 81% 30.10 in 10.0 mi Calm Calm - N/A   Mostly Cloudy
4:35 AM 33.8 °F - 28.4 °F 81% 30.10 in 10.0 mi Calm Calm - N/A   Overcast
4:55 AM 35.6 °F - 28.4 °F 75% 30.10 in 10.0 mi Calm Calm - N/A   Overcast
5:15 AM 35.6 °F - 28.4 °F 75% 30.10 in 10.0 mi Calm Calm - N/A   Overcast
5:35 AM 35.6 °F - 30.2 °F 81% 30.12 in 10.0 mi Calm Calm - N/A   Mostly Cloudy
5:55 AM 35.6 °F - 28.4 °F 75% 30.13 in 10.0 mi Calm Calm - N/A   Scattered Clouds
6:15 AM 33.8 °F - 28.4 °F 81% 30.13 in 10.0 mi Calm Calm - N/A   Mostly Cloudy
6:35 AM 33.8 °F - 28.4 °F 81% 30.13 in 10.0 mi Calm Calm - N/A   Overcast
6:55 AM 33.8 °F - 30.2 °F 87% 30.12 in 10.0 mi Calm Calm - N/A   Mostly Cloudy
7:15 AM 33.8 °F - 30.2 °F 87% 30.13 in 10.0 mi Calm Calm - N/A   Overcast
7:35 AM 35.6 °F - 30.2 °F 81% 30.13 in 10.0 mi Calm Calm - N/A   Mostly Cloudy
7:55 AM 35.6 °F - 32.0 °F 87% 30.14 in 10.0 mi Calm Calm - N/A   Scattered Clouds
8:15 AM 35.6 °F - 32.0 °F 87% 30.15 in 10.0 mi Calm Calm - N/A   Scattered Clouds
8:35 AM 37.4 °F - 30.2 °F 75% 30.15 in 10.0 mi Calm Calm - N/A   Mostly Cloudy
8:55 AM 39.2 °F - 30.2 °F 70% 30.15 in 10.0 mi Calm Calm - N/A   Mostly Cloudy
9:15 AM 41.0 °F - 23.0 °F 49% 30.15 in 10.0 mi Calm Calm - N/A   Mostly Cloudy
9:35 AM 42.8 °F - 19.4 °F 39% 30.15 in 10.0 mi Calm Calm - N/A   Scattered Clouds
9:55 AM 44.6 °F - 14.0 °F 29% 30.15 in 10.0 mi Calm Calm - N/A   Scattered Clouds
10:15 AM 44.6 °F - 14.0 °F 29% 30.14 in 10.0 mi Calm Calm - N/A   Mostly Cloudy
10:35 AM 46.4 °F - 14.0 °F 27% 30.14 in 10.0 mi Calm Calm - N/A   Mostly Cloudy
10:55 AM 46.4 °F - 12.2 °F 25% 30.13 in 10.0 mi Calm Calm - N/A   Scattered Clouds
11:15 AM 46.4 °F - 12.2 °F 25% 30.13 in 10.0 mi Calm Calm - N/A   Clear
11:35 AM 50.0 °F - 12.2 °F 22% 30.12 in 10.0 mi Calm Calm - N/A   Clear
11:55 AM 51.8 °F - 10.4 °F 19% 30.11 in 10.0 mi SE 4.6 mph - N/A   Clear
12:15 PM 51.8 °F - 10.4 °F 19% 30.10 in 10.0 mi WNW 6.9 mph - N/A   Clear
12:35 PM 53.6 °F - 12.2 °F 19% 30.08 in 10.0 mi West 13.8 mph 17.3 mph N/A   Clear
12:55 PM 53.6 °F - 12.2 °F 19% 30.07 in 10.0 mi West 8.1 mph - N/A   Clear
1:15 PM 53.6 °F - 12.2 °F 19% 30.05 in 10.0 mi West 4.6 mph - N/A   Clear
1:35 PM 53.6 °F - 14.0 °F 21% 30.05 in 10.0 mi West 12.7 mph 19.6 mph N/A   Clear
1:55 PM 53.6 °F - 14.0 °F 21% 30.03 in 10.0 mi North 6.9 mph 18.4 mph N/A   Clear
2:15 PM 55.4 °F - 14.0 °F 20% 30.02 in 10.0 mi WNW 15.0 mph 18.4 mph N/A   Clear
2:35 PM 55.4 °F - 12.2 °F 18% 30.01 in 10.0 mi West 16.1 mph 25.3 mph N/A   Clear
2:55 PM 55.4 °F - 12.2 °F 18% 30.00 in 10.0 mi West 17.3 mph 24.2 mph N/A   Clear
3:15 PM 55.4 °F - 14.0 °F 20% 29.99 in 10.0 mi West 12.7 mph 21.9 mph N/A   Clear
3:35 PM 55.4 °F - 15.8 °F 21% 29.98 in 10.0 mi NNW 16.1 mph 21.9 mph N/A   Clear
3:55 PM 53.6 °F - 14.0 °F 21% 29.98 in 10.0 mi West 10.4 mph 23.0 mph N/A   Scattered Clouds
4:15 PM 53.6 °F - 17.6 °F 24% 29.97 in 10.0 mi WNW 12.7 mph 21.9 mph N/A   Mostly Cloudy
4:35 PM 53.6 °F - 19.4 °F 26% 29.96 in 10.0 mi NW 11.5 mph - N/A   Mostly Cloudy
4:55 PM 51.8 °F - 19.4 °F 28% 29.97 in 10.0 mi WNW 9.2 mph 17.3 mph N/A   Scattered Clouds
5:15 PM 53.6 °F - 19.4 °F 26% 29.96 in 10.0 mi WNW 12.7 mph 17.3 mph N/A   Mostly Cloudy
5:35 PM 51.8 °F - 17.6 °F 26% 29.96 in 10.0 mi WNW 12.7 mph 26.5 mph N/A   Mostly Cloudy
5:55 PM 53.6 °F - 17.6 °F 24% 29.95 in 10.0 mi WNW 11.5 mph 21.9 mph N/A   Scattered Clouds
6:15 PM 51.8 °F - 17.6 °F 26% 29.95 in 10.0 mi WNW 10.4 mph 16.1 mph N/A   Scattered Clouds
6:35 PM 51.8 °F - 19.4 °F 28% 29.95 in 10.0 mi WNW 11.5 mph 16.1 mph N/A   Scattered Clouds
6:55 PM 50.0 °F - 19.4 °F 30% 29.95 in 10.0 mi WNW 8.1 mph 17.3 mph N/A   Scattered Clouds
7:15 PM 50.0 °F - 19.4 °F 30% 29.95 in 10.0 mi West 8.1 mph 17.3 mph N/A   Mostly Cloudy
7:35 PM 50.0 °F - 19.4 °F 30% 29.95 in 10.0 mi West 9.2 mph - N/A   Scattered Clouds
7:55 PM 48.2 °F - 17.6 °F 30% 29.95 in 10.0 mi West 10.4 mph - N/A   Scattered Clouds
8:15 PM 48.2 °F - 19.4 °F 32% 29.96 in 10.0 mi WNW 10.4 mph - N/A   Scattered Clouds
8:35 PM 46.4 °F 41.9 °F 19.4 °F 34% 29.96 in 10.0 mi WNW 9.2 mph - N/A   Scattered Clouds
8:55 PM 46.4 °F 40.1 °F 19.4 °F 34% 29.98 in 10.0 mi NW 15.0 mph 21.9 mph N/A   Clear
9:15 PM 44.6 °F 40.7 °F 19.4 °F 37% 29.98 in 10.0 mi WNW 6.9 mph 16.1 mph N/A   Clear
9:35 PM 44.6 °F 38.4 °F 21.2 °F 39% 29.99 in 10.0 mi WNW 12.7 mph 16.1 mph N/A   Scattered Clouds
9:55 PM 44.6 °F 37.4 °F 19.4 °F 37% 29.99 in 10.0 mi NW 16.1 mph 19.6 mph N/A   Scattered Clouds
10:15 PM 42.8 °F 37.5 °F 19.4 °F 39% 29.99 in 10.0 mi WNW 9.2 mph - N/A   Clear
10:35 PM 42.8 °F 39.3 °F 21.2 °F 42% 29.99 in 10.0 mi NW 5.8 mph - N/A   Clear
10:55 PM 41.0 °F 39.0 °F 21.2 °F 45% 29.98 in 10.0 mi WNW 3.5 mph - N/A   Clear
11:15 PM 41.0 °F - 21.2 °F 45% 29.98 in 10.0 mi Calm Calm - N/A   Clear
11:35 PM 37.4 °F - 24.8 °F 60% 29.97 in 10.0 mi Calm Calm - N/A   Clear
11:55 PM 35.6 °F 31.7 °F 24.8 °F 65% 29.97 in 10.0 mi NNW 4.6 mph - N/A   Scattered Clouds